Time,TemperatureF,DewpointF,PressureIn,WindDirection,WindDirectionDegrees,WindSpeedMPH,WindSpeedGustMPH,Humidity,HourlyPrecipIn,Conditions,Clouds,dailyrainin,SoftwareType,DateUTC
2013-01-01 00:00:00,28.6,13.1,29.94,North,7,3.1,10.5,52,0.00,,---,0.00,VWS V14.01,2013-01-01 05:00:00,
2013-01-01 00:03:00,28.6,13.1,29.94,North,0,0.0,5.8,52,0.00,,---,0.00,VWS V14.01,2013-01-01 05:03:00,
2013-01-01 00:07:00,28.6,12.6,29.94,NNE,12,2.7,5.8,51,0.00,,---,0.00,VWS V14.01,2013-01-01 05:07:00,
2013-01-01 00:12:00,28.4,13.0,29.94,North,8,3.1,5.8,52,0.00,,---,0.00,VWS V14.01,2013-01-01 05:12:00,
2013-01-01 00:14:00,28.4,13.0,29.97,NE,38,3.6,6.3,52,0.00,,---,0.00,VWS V14.01,2013-01-01 05:14:00,
2013-01-01 00:19:00,28.2,12.8,29.97,NNE,21,3.6,6.3,52,0.00,,---,0.00,VWS V14.01,2013-01-01 05:19:00,
2013-01-01 00:24:00,28.2,12.3,29.97,North,5,4.0,8.7,51,0.00,,---,0.00,VWS V14.01,2013-01-01 05:24:00,
2013-01-01 00:29:00,28.2,12.3,29.94,North,0,8.7,9.2,51,0.00,,---,0.00,VWS V14.01,2013-01-01 05:29:00,
2013-01-01 00:34:00,28.2,12.3,29.94,North,357,3.6,9.2,51,0.00,,---,0.00,VWS V14.01,2013-01-01 05:34:00,
2013-01-01 00:39:00,28.0,12.1,29.94,NNE,16,0.0,9.2,51,0.00,,---,0.00,VWS V14.01,2013-01-01 05:39:00,
2013-01-01 00:44:00,27.9,12.0,29.97,NNE,14,2.2,9.2,51,0.00,,---,0.00,VWS V14.01,2013-01-01 05:44:00,
2013-01-01 00:49:00,27.7,12.3,29.97,NNE,14,0.0,9.2,52,0.00,,---,0.00,VWS V14.01,2013-01-01 05:49:00,
2013-01-01 00:54:00,27.3,12.0,29.97,NNE,14,0.0,9.2,52,0.00,,---,0.00,VWS V14.01,2013-01-01 05:54:00,
2013-01-01 00:59:00,27.1,11.8,29.97,NNE,14,0.0,9.2,52,0.00,,---,0.00,VWS V14.01,2013-01-01 05:59:00,
2013-01-01 01:04:00,27.0,11.6,29.97,NNE,14,0.0,0.0,52,0.00,,---,0.00,VWS V14.01,2013-01-01 06:04:00,
2013-01-01 01:09:00,27.0,12.1,29.97,NNE,14,0.0,0.0,53,0.00,,---,0.00,VWS V14.01,2013-01-01 06:09:00,
2013-01-01 01:14:00,26.8,11.9,29.97,NNE,14,0.0,0.0,53,0.00,,---,0.00,VWS V14.01,2013-01-01 06:14:00,
2013-01-01 01:19:00,26.6,11.8,29.97,NNE,14,0.0,0.0,53,0.00,,---,0.00,VWS V14.01,2013-01-01 06:19:00,
2013-01-01 01:24:00,26.4,12.0,29.97,NNE,14,0.0,0.0,54,0.00,,---,0.00,VWS V14.01,2013-01-01 06:24:00,
2013-01-01 01:29:00,26.2,11.9,29.94,NNE,14,0.0,0.0,54,0.00,,---,0.00,VWS V14.01,2013-01-01 06:29:00,
2013-01-01 01:35:00,26.2,11.9,29.94,NNE,14,0.0,0.0,54,0.00,,---,0.00,VWS V14.01,2013-01-01 06:35:00,
2013-01-01 01:40:00,26.2,12.3,29.94,NNE,14,0.0,0.0,55,0.00,,---,0.00,VWS V14.01,2013-01-01 06:40:00,
2013-01-01 01:45:00,26.2,12.3,29.94,NNE,14,0.0,0.0,55,0.00,,---,0.00,VWS V14.01,2013-01-01 06:45:00,
2013-01-01 01:50:00,26.1,12.1,29.94,NNE,14,0.0,0.0,55,0.00,,---,0.00,VWS V14.01,2013-01-01 06:50:00,
2013-01-01 01:55:00,26.1,12.6,29.94,NNE,14,0.0,0.0,56,0.00,,---,0.00,VWS V14.01,2013-01-01 06:55:00,
2013-01-01 02:00:00,26.1,12.6,29.94,NNE,14,0.0,0.0,56,0.00,,---,0.00,VWS V14.01,2013-01-01 07:00:00,
2013-01-01 02:05:00,26.1,12.6,29.94,NNE,14,0.0,0.0,56,0.00,,---,0.00,VWS V14.01,2013-01-01 07:05:00,
2013-01-01 02:10:00,26.2,12.8,29.94,NNE,14,0.0,4.0,56,0.00,,---,0.00,VWS V14.01,2013-01-01 07:10:00,
2013-01-01 02:15:00,26.2,12.8,29.94,NNE,17,0.0,5.4,56,0.00,,---,0.00,VWS V14.01,2013-01-01 07:15:00,
2013-01-01 02:20:00,26.4,12.9,29.94,NNE,17,0.0,5.4,56,0.00,,---,0.00,VWS V14.01,2013-01-01 07:20:00,
2013-01-01 02:25:00,26.4,12.9,29.94,NNE,17,0.0,5.4,56,0.00,,---,0.00,VWS V14.01,2013-01-01 07:25:00,
2013-01-01 02:30:00,26.4,12.9,29.97,NNE,17,3.6,5.4,56,0.00,,---,0.00,VWS V14.01,2013-01-01 07:30:00,
2013-01-01 02:35:00,26.6,13.1,29.97,NNE,20,0.0,5.8,56,0.00,,---,0.00,VWS V14.01,2013-01-01 07:35:00,
2013-01-01 02:40:00,26.6,13.1,29.97,North,357,2.2,5.8,56,0.00,,---,0.00,VWS V14.01,2013-01-01 07:40:00,
2013-01-01 02:45:00,26.8,12.8,29.97,North,2,0.0,5.8,55,0.00,,---,0.00,VWS V14.01,2013-01-01 07:45:00,
2013-01-01 02:50:00,26.8,12.8,29.97,North,2,2.7,5.8,55,0.00,,---,0.00,VWS V14.01,2013-01-01 07:50:00,
2013-01-01 02:55:00,26.8,12.4,29.97,North,357,3.6,5.8,54,0.00,,---,0.00,VWS V14.01,2013-01-01 07:55:00,
2013-01-01 03:00:00,26.8,12.4,29.97,North,357,3.6,3.6,54,0.00,,---,0.00,VWS V14.01,2013-01-01 08:00:00,
2013-01-01 03:05:00,26.8,12.4,29.97,North,2,3.6,5.4,54,0.00,,---,0.00,VWS V14.01,2013-01-01 08:05:00,
2013-01-01 03:10:00,26.8,11.9,29.97,North,7,4.0,5.8,53,0.00,,---,0.00,VWS V14.01,2013-01-01 08:10:00,
2013-01-01 03:15:00,26.8,12.4,29.97,North,10,4.0,5.8,54,0.00,,---,0.00,VWS V14.01,2013-01-01 08:15:00,
2013-01-01 03:20:00,26.8,11.9,29.97,North,11,0.0,5.8,53,0.00,,---,0.00,VWS V14.01,2013-01-01 08:20:00,
2013-01-01 03:25:00,26.8,11.9,29.97,NNE,16,4.0,5.8,53,0.00,,---,0.00,VWS V14.01,2013-01-01 08:25:00,
2013-01-01 03:30:00,26.8,11.9,29.97,North,4,3.6,5.8,53,0.00,,---,0.00,VWS V14.01,2013-01-01 08:30:00,
2013-01-01 03:35:00,26.8,11.9,29.97,NNE,16,3.6,5.8,53,0.00,,---,0.00,VWS V14.01,2013-01-01 08:35:00,
2013-01-01 03:40:00,26.8,11.5,29.97,NNE,17,3.1,5.8,52,0.00,,---,0.00,VWS V14.01,2013-01-01 08:40:00,
2013-01-01 03:45:00,26.8,11.5,29.97,NNE,19,3.6,7.6,52,0.00,,---,0.00,VWS V14.01,2013-01-01 08:45:00,
2013-01-01 03:50:00,26.6,11.3,29.97,North,353,3.1,7.6,52,0.00,,---,0.00,VWS V14.01,2013-01-01 08:50:00,
2013-01-01 03:55:00,26.6,11.8,29.97,North,353,0.0,7.6,53,0.00,,---,0.00,VWS V14.01,2013-01-01 08:55:00,
2013-01-01 04:00:00,26.6,11.8,29.97,North,2,0.0,0.0,53,0.00,,---,0.00,VWS V14.01,2013-01-01 09:00:00,
2013-01-01 04:05:00,26.6,11.8,29.97,North,5,4.0,5.8,53,0.00,,---,0.00,VWS V14.01,2013-01-01 09:05:00,
2013-01-01 04:11:00,26.4,11.6,29.97,NNW,344,3.1,5.8,53,0.00,,---,0.00,VWS V14.01,2013-01-01 09:11:00,
2013-01-01 04:16:00,26.4,11.6,29.97,North,4,3.1,6.3,53,0.00,,---,0.00,VWS V14.01,2013-01-01 09:16:00,
2013-01-01 04:21:00,26.4,11.6,29.97,North,4,4.0,6.3,53,0.00,,---,0.00,VWS V14.01,2013-01-01 09:21:00,
2013-01-01 04:26:00,26.4,11.1,29.97,North,5,2.7,6.3,52,0.00,,---,0.00,VWS V14.01,2013-01-01 09:26:00,
2013-01-01 04:31:00,26.4,10.6,29.97,NNE,21,4.0,8.1,51,0.00,,---,0.00,VWS V14.01,2013-01-01 09:31:00,
2013-01-01 04:36:00,26.2,10.0,29.97,NNE,20,3.1,8.1,50,0.00,,---,0.00,VWS V14.01,2013-01-01 09:36:00,
2013-01-01 04:41:00,26.2,10.5,29.97,NNE,20,4.0,8.1,51,0.00,,---,0.00,VWS V14.01,2013-01-01 09:41:00,
2013-01-01 04:46:00,26.2,10.5,29.97,North,5,0.0,8.1,51,0.00,,---,0.00,VWS V14.01,2013-01-01 09:46:00,
2013-01-01 04:51:00,26.1,10.3,29.97,North,5,0.0,8.1,51,0.00,,---,0.00,VWS V14.01,2013-01-01 09:51:00,
2013-01-01 04:56:00,26.1,10.8,29.97,NNE,12,2.2,8.1,52,0.00,,---,0.00,VWS V14.01,2013-01-01 09:56:00,
2013-01-01 05:01:00,26.1,10.8,29.97,NNE,12,0.0,0.0,52,0.00,,---,0.00,VWS V14.01,2013-01-01 10:01:00,
2013-01-01 05:06:00,25.9,10.6,29.97,NNE,12,0.0,0.0,52,0.00,,---,0.00,VWS V14.01,2013-01-01 10:06:00,
2013-01-01 05:11:00,25.9,10.6,29.97,NNE,12,0.0,0.0,52,0.00,,---,0.00,VWS V14.01,2013-01-01 10:11:00,
2013-01-01 05:16:00,25.7,10.4,29.97,NNE,12,0.0,4.9,52,0.00,,---,0.00,VWS V14.01,2013-01-01 10:16:00,
2013-01-01 05:21:00,25.7,10.4,29.97,NNE,12,3.1,4.9,52,0.00,,---,0.00,VWS V14.01,2013-01-01 10:21:00,
2013-01-01 05:26:00,25.7,10.4,29.97,NNE,12,0.0,4.9,52,0.00,,---,0.00,VWS V14.01,2013-01-01 10:26:00,
2013-01-01 05:31:00,25.7,10.4,29.97,North,357,3.6,6.3,52,0.00,,---,0.00,VWS V14.01,2013-01-01 10:31:00,
2013-01-01 05:36:00,25.5,9.8,29.97,NNE,12,3.6,6.3,51,0.00,,---,0.00,VWS V14.01,2013-01-01 10:36:00,
2013-01-01 05:41:00,25.5,9.8,29.97,North,11,5.8,6.3,51,0.00,,---,0.00,VWS V14.01,2013-01-01 10:41:00,
2013-01-01 05:46:00,25.5,9.8,29.97,North,8,0.0,6.3,51,0.00,,---,0.00,VWS V14.01,2013-01-01 10:46:00,
2013-01-01 05:51:00,25.5,9.8,29.97,North,8,0.0,6.3,51,0.00,,---,0.00,VWS V14.01,2013-01-01 10:51:00,
2013-01-01 05:56:00,25.3,9.6,29.97,North,357,3.6,6.3,51,0.00,,---,0.00,VWS V14.01,2013-01-01 10:56:00,
2013-01-01 06:01:00,25.3,9.6,29.97,NNE,17,2.7,4.9,51,0.00,,---,0.00,VWS V14.01,2013-01-01 11:01:00,
2013-01-01 06:06:00,25.3,9.6,29.97,NNW,339,0.0,5.8,51,0.00,,---,0.00,VWS V14.01,2013-01-01 11:06:00,
2013-01-01 06:12:00,25.2,9.5,29.97,North,6,0.0,5.8,51,0.00,,---,0.00,VWS V14.01,2013-01-01 11:12:00,
2013-01-01 06:17:00,25.2,9.5,29.97,North,11,3.1,5.8,51,0.00,,---,0.00,VWS V14.01,2013-01-01 11:17:00,
2013-01-01 06:22:00,25.0,9.8,29.97,North,5,3.1,5.8,52,0.00,,---,0.00,VWS V14.01,2013-01-01 11:22:00,
2013-01-01 06:27:00,25.0,9.8,29.97,North,8,5.4,6.7,52,0.00,,---,0.00,VWS V14.01,2013-01-01 11:27:00,
2013-01-01 06:32:00,24.8,9.6,30.00,NNE,18,6.3,7.2,52,0.00,,---,0.00,VWS V14.01,2013-01-01 11:32:00,
2013-01-01 06:37:00,24.8,8.7,30.00,North,10,4.0,8.7,50,0.00,,---,0.00,VWS V14.01,2013-01-01 11:37:00,
2013-01-01 06:42:00,24.6,8.0,30.00,NE,48,5.8,8.7,49,0.00,,---,0.00,VWS V14.01,2013-01-01 11:42:00,
2013-01-01 06:47:00,24.4,7.8,30.00,North,353,8.1,8.7,49,0.00,,---,0.00,VWS V14.01,2013-01-01 11:47:00,
2013-01-01 06:52:00,24.4,7.3,30.00,North,357,8.7,8.7,48,0.00,,---,0.00,VWS V14.01,2013-01-01 11:52:00,
2013-01-01 06:57:00,24.3,7.2,30.00,North,6,4.9,10.1,48,0.00,,---,0.00,VWS V14.01,2013-01-01 11:57:00,
2013-01-01 07:02:00,24.1,7.0,30.00,NNW,344,5.8,5.8,48,0.00,,---,0.00,VWS V14.01,2013-01-01 12:02:00,
2013-01-01 07:07:00,23.7,6.7,30.00,NNE,33,2.7,6.3,48,0.00,,---,0.00,VWS V14.01,2013-01-01 12:07:00,
2013-01-01 07:12:00,23.5,6.5,30.00,NNE,19,4.0,6.3,48,0.00,,---,0.00,VWS V14.01,2013-01-01 12:12:00,
2013-01-01 07:17:00,23.2,6.2,30.00,North,11,6.3,8.7,48,0.00,,---,0.00,VWS V14.01,2013-01-01 12:17:00,
2013-01-01 07:22:00,22.8,5.9,30.00,North,357,4.0,8.7,48,0.00,,---,0.00,VWS V14.01,2013-01-01 12:22:00,
2013-01-01 07:28:00,22.5,5.5,30.00,North,8,2.7,8.7,48,0.00,,---,0.00,VWS V14.01,2013-01-01 12:28:00,
2013-01-01 07:33:00,22.3,5.4,30.00,NNE,17,4.0,8.7,48,0.00,,---,0.00,VWS V14.01,2013-01-01 12:33:00,
2013-01-01 07:38:00,21.9,5.0,30.00,NNE,29,3.1,8.7,48,0.00,,---,0.00,VWS V14.01,2013-01-01 12:38:00,
2013-01-01 07:43:00,21.6,4.7,30.00,NNE,22,0.0,8.7,48,0.00,,---,0.00,VWS V14.01,2013-01-01 12:43:00,
2013-01-01 07:48:00,21.2,4.4,30.00,NNE,20,0.0,8.7,48,0.00,,---,0.00,VWS V14.01,2013-01-01 12:48:00,
2013-01-01 07:53:00,21.2,4.9,30.00,NNE,20,0.0,8.7,49,0.00,,---,0.00,VWS V14.01,2013-01-01 12:53:00,
2013-01-01 07:58:00,20.8,4.5,30.00,NNE,20,0.0,8.7,49,0.00,,---,0.00,VWS V14.01,2013-01-01 12:58:00,
2013-01-01 08:03:00,20.7,4.4,30.03,NNE,20,0.0,0.0,49,0.00,,---,0.00,VWS V14.01,2013-01-01 13:03:00,
2013-01-01 08:08:00,20.3,4.0,30.03,NNE,20,0.0,0.0,49,0.00,,---,0.00,VWS V14.01,2013-01-01 13:08:00,
2013-01-01 08:13:00,20.1,3.9,30.03,NNE,20,0.0,0.0,49,0.00,,---,0.00,VWS V14.01,2013-01-01 13:13:00,
2013-01-01 08:18:00,19.6,3.4,30.03,NNE,20,0.0,0.0,49,0.00,,---,0.00,VWS V14.01,2013-01-01 13:18:00,
2013-01-01 08:23:00,19.2,3.5,30.03,NNE,20,0.0,0.0,50,0.00,,---,0.00,VWS V14.01,2013-01-01 13:23:00,
2013-01-01 08:28:00,19.0,3.3,30.03,NNE,20,0.0,0.0,50,0.00,,---,0.00,VWS V14.01,2013-01-01 13:28:00,
2013-01-01 08:33:00,18.7,3.5,30.03,NNE,20,0.0,0.0,51,0.00,,---,0.00,VWS V14.01,2013-01-01 13:33:00,
2013-01-01 08:38:00,18.3,3.1,30.03,NNE,20,0.0,0.0,51,0.00,,---,0.00,VWS V14.01,2013-01-01 13:38:00,
2013-01-01 08:43:00,18.1,3.0,30.03,NNE,20,0.0,0.0,51,0.00,,---,0.00,VWS V14.01,2013-01-01 13:43:00,
2013-01-01 08:48:00,17.8,2.6,30.03,NNE,20,0.0,0.0,51,0.00,,---,0.00,VWS V14.01,2013-01-01 13:48:00,
2013-01-01 08:53:00,17.8,3.1,30.03,NNE,19,0.0,0.0,52,0.00,,---,0.00,VWS V14.01,2013-01-01 13:53:00,
2013-01-01 08:58:00,17.8,3.1,30.06,NNE,19,0.0,0.0,52,0.00,,---,0.00,VWS V14.01,2013-01-01 13:58:00,
2013-01-01 09:04:00,18.1,3.4,30.06,NNE,19,0.0,0.0,52,0.00,,---,0.00,VWS V14.01,2013-01-01 14:04:00,
2013-01-01 09:09:00,18.3,4.0,30.06,NNE,24,0.0,4.9,53,0.00,,---,0.00,VWS V14.01,2013-01-01 14:09:00,
2013-01-01 09:14:00,18.3,4.0,30.06,NNE,24,0.0,4.9,53,0.00,,---,0.00,VWS V14.01,2013-01-01 14:14:00,
2013-01-01 09:19:00,18.5,4.2,30.06,NNE,24,0.0,4.9,53,0.00,,---,0.00,VWS V14.01,2013-01-01 14:19:00,
2013-01-01 09:24:00,19.0,4.7,30.06,NNE,24,0.0,4.9,53,0.00,,---,0.00,VWS V14.01,2013-01-01 14:24:00,
2013-01-01 09:29:00,19.6,5.2,30.06,NNE,24,0.0,4.9,53,0.00,,---,0.00,VWS V14.01,2013-01-01 14:29:00,
2013-01-01 09:34:00,20.3,5.4,30.06,NNE,20,3.6,4.9,52,0.00,,---,0.00,VWS V14.01,2013-01-01 14:34:00,
2013-01-01 09:39:00,20.7,5.8,30.06,North,7,3.6,5.8,52,0.00,,---,0.00,VWS V14.01,2013-01-01 14:39:00,
2013-01-01 09:44:00,21.0,5.6,30.06,North,11,3.1,5.8,51,0.00,,---,0.00,VWS V14.01,2013-01-01 14:44:00,
2013-01-01 09:49:00,21.0,5.6,30.06,North,0,4.0,5.8,51,0.00,,---,0.00,VWS V14.01,2013-01-01 14:49:00,
2013-01-01 09:54:00,21.4,5.5,30.06,NNE,13,3.6,5.8,50,0.00,,---,0.00,VWS V14.01,2013-01-01 14:54:00,
2013-01-01 09:59:00,21.7,5.8,30.09,North,8,4.0,5.8,50,0.00,,---,0.00,VWS V14.01,2013-01-01 14:59:00,
2013-01-01 10:04:00,22.1,6.2,30.09,NNE,21,0.0,4.9,50,0.00,,---,0.00,VWS V14.01,2013-01-01 15:04:00,
2013-01-01 10:09:00,22.5,6.0,30.09,North,357,5.4,5.4,49,0.00,,---,0.00,VWS V14.01,2013-01-01 15:09:00,
2013-01-01 10:14:00,23.0,6.5,30.06,North,2,4.5,5.4,49,0.00,,---,0.00,VWS V14.01,2013-01-01 15:14:00,
2013-01-01 10:19:00,23.5,7.0,30.06,North,9,0.0,6.3,49,0.00,,---,0.00,VWS V14.01,2013-01-01 15:19:00,
2013-01-01 10:24:00,23.7,6.7,30.06,North,0,0.0,6.3,48,0.00,,---,0.00,VWS V14.01,2013-01-01 15:24:00,
2013-01-01 10:29:00,24.3,7.2,30.06,NNE,14,3.1,6.3,48,0.00,,---,0.00,VWS V14.01,2013-01-01 15:29:00,
2013-01-01 10:34:00,24.4,7.3,30.06,North,1,2.2,6.3,48,0.00,,---,0.00,VWS V14.01,2013-01-01 15:34:00,
2013-01-01 10:39:00,25.0,7.3,30.06,NNE,32,6.3,6.3,46,0.00,,---,0.00,VWS V14.01,2013-01-01 15:39:00,
2013-01-01 10:44:00,25.3,7.7,30.09,North,2,3.1,6.3,46,0.00,,---,0.00,VWS V14.01,2013-01-01 15:44:00,
2013-01-01 10:49:00,26.1,7.8,30.09,North,1,5.8,6.3,45,0.00,,---,0.00,VWS V14.01,2013-01-01 15:49:00,
2013-01-01 10:54:00,26.4,7.6,30.09,NNE,24,4.9,7.6,44,0.00,,---,0.00,VWS V14.01,2013-01-01 15:54:00,
2013-01-01 10:59:00,27.1,8.3,30.06,NE,39,2.7,7.6,44,0.00,,---,0.00,VWS V14.01,2013-01-01 15:59:00,
2013-01-01 11:04:00,27.9,7.8,30.06,ENE,73,3.1,6.3,42,0.00,,---,0.00,VWS V14.01,2013-01-01 16:04:00,
2013-01-01 11:09:00,28.9,7.6,30.06,NNE,22,2.7,6.3,40,0.00,,---,0.00,VWS V14.01,2013-01-01 16:09:00,
2013-01-01 11:14:00,29.8,7.2,30.03,NE,37,3.6,6.3,38,0.00,,---,0.00,VWS V14.01,2013-01-01 16:14:00,
2013-01-01 11:19:00,30.7,7.4,30.03,NNE,19,8.1,8.3,37,0.00,,---,0.00,VWS V14.01,2013-01-01 16:19:00,
2013-01-01 11:24:00,30.9,6.9,30.03,NNE,22,5.8,10.5,36,0.00,,---,0.00,VWS V14.01,2013-01-01 16:24:00,
2013-01-01 11:29:00,30.9,6.2,30.03,North,7,4.9,10.5,35,0.00,,---,0.00,VWS V14.01,2013-01-01 16:29:00,
2013-01-01 11:35:00,31.1,6.4,30.03,NNE,23,5.8,10.5,35,0.00,,---,0.00,VWS V14.01,2013-01-01 16:35:00,
2013-01-01 11:40:00,31.3,5.8,30.03,NE,39,3.6,10.5,33,0.00,,---,0.00,VWS V14.01,2013-01-01 16:40:00,
2013-01-01 11:45:00,31.1,5.7,30.03,North,353,7.6,10.5,33,0.00,,---,0.00,VWS V14.01,2013-01-01 16:45:00,
2013-01-01 11:50:00,31.1,5.7,30.03,NNE,14,5.8,10.5,33,0.00,,---,0.00,VWS V14.01,2013-01-01 16:50:00,
2013-01-01 11:55:00,31.8,6.3,30.03,NNE,22,10.1,11.4,33,0.00,,---,0.00,VWS V14.01,2013-01-01 16:55:00,
2013-01-01 12:00:00,32.0,6.5,30.03,NNE,24,8.3,11.4,33,0.00,,---,0.00,VWS V14.01,2013-01-01 17:00:00,
2013-01-01 12:05:00,31.5,6.0,30.03,NNE,22,5.4,10.5,33,0.00,,---,0.00,VWS V14.01,2013-01-01 17:05:00,
2013-01-01 12:10:00,31.5,6.0,30.03,NE,35,4.0,10.5,33,0.00,,---,0.00,VWS V14.01,2013-01-01 17:10:00,
2013-01-01 12:15:00,31.8,6.3,30.03,NE,36,2.7,10.5,33,0.00,,---,0.00,VWS V14.01,2013-01-01 17:15:00,
2013-01-01 12:20:00,30.9,5.5,30.03,North,357,6.3,10.5,33,0.00,,---,0.00,VWS V14.01,2013-01-01 17:20:00,
2013-01-01 12:25:00,29.5,4.2,30.03,North,1,4.0,11.0,33,0.00,,---,0.00,VWS V14.01,2013-01-01 17:25:00,
2013-01-01 12:30:00,28.8,4.3,30.03,North,357,6.3,11.0,35,0.00,,---,0.00,VWS V14.01,2013-01-01 17:30:00,
2013-01-01 12:35:00,28.9,4.5,30.03,NE,34,3.1,11.0,35,0.00,,---,0.00,VWS V14.01,2013-01-01 17:35:00,
2013-01-01 12:40:00,29.7,5.1,30.03,NNE,21,5.4,11.0,35,0.00,,---,0.00,VWS V14.01,2013-01-01 17:40:00,
2013-01-01 12:45:00,29.5,4.9,30.03,North,357,5.8,11.0,35,0.00,,---,0.00,VWS V14.01,2013-01-01 17:45:00,
2013-01-01 12:50:00,28.9,4.5,30.03,North,357,3.6,11.0,35,0.00,,---,0.00,VWS V14.01,2013-01-01 17:50:00,
2013-01-01 12:55:00,28.9,4.5,30.03,NE,51,2.2,11.0,35,0.00,,---,0.00,VWS V14.01,2013-01-01 17:55:00,
2013-01-01 13:00:00,28.9,4.5,30.03,NNE,16,5.4,5.4,35,0.00,,---,0.00,VWS V14.01,2013-01-01 18:00:00,
2013-01-01 13:05:00,29.3,4.8,30.03,NNE,29,4.0,6.3,35,0.00,,---,0.00,VWS V14.01,2013-01-01 18:05:00,
2013-01-01 13:10:00,28.9,4.5,30.03,North,9,5.4,8.1,35,0.00,,---,0.00,VWS V14.01,2013-01-01 18:10:00,
2013-01-01 13:15:00,28.4,4.0,30.03,NNE,13,3.1,8.1,35,0.00,,---,0.00,VWS V14.01,2013-01-01 18:15:00,
2013-01-01 13:20:00,28.6,4.1,30.03,North,0,0.0,8.1,35,0.00,,---,0.00,VWS V14.01,2013-01-01 18:20:00,
2013-01-01 13:25:00,27.9,3.5,30.03,NW,324,0.0,8.1,35,0.00,,---,0.00,VWS V14.01,2013-01-01 18:25:00,
2013-01-01 13:30:00,28.6,4.1,30.03,North,357,3.6,8.1,35,0.00,,---,0.00,VWS V14.01,2013-01-01 18:30:00,
2013-01-01 13:35:00,30.4,5.1,30.03,NNW,336,0.0,8.7,33,0.00,,---,0.00,VWS V14.01,2013-01-01 18:35:00,
2013-01-01 13:40:00,32.0,6.5,30.03,WNW,303,0.0,8.7,33,0.00,,---,0.00,VWS V14.01,2013-01-01 18:40:00,
2013-01-01 13:45:00,31.6,6.2,30.03,North,1,2.7,8.7,33,0.00,,---,0.00,VWS V14.01,2013-01-01 18:45:00,
2013-01-01 13:51:00,31.8,6.3,30.03,North,353,4.0,8.7,33,0.00,,---,0.00,VWS V14.01,2013-01-01 18:51:00,
2013-01-01 13:56:00,31.5,6.0,30.03,NNE,20,3.1,8.7,33,0.00,,---,0.00,VWS V14.01,2013-01-01 18:56:00,
2013-01-01 14:01:00,32.4,6.8,30.00,NNE,30,4.0,4.9,33,0.00,,---,0.00,VWS V14.01,2013-01-01 19:01:00,
2013-01-01 14:06:00,32.7,7.1,30.00,NNE,23,3.6,8.3,33,0.00,,---,0.00,VWS V14.01,2013-01-01 19:06:00,
2013-01-01 14:11:00,32.7,6.4,30.00,North,353,3.6,8.3,32,0.00,,---,0.00,VWS V14.01,2013-01-01 19:11:00,
2013-01-01 14:16:00,32.4,6.1,30.00,North,5,0.0,8.3,32,0.00,,---,0.00,VWS V14.01,2013-01-01 19:16:00,
2013-01-01 14:21:00,32.0,5.8,30.00,NNE,21,7.6,8.3,32,0.00,,---,0.00,VWS V14.01,2013-01-01 19:21:00,
2013-01-01 14:26:00,31.3,5.1,30.00,North,357,3.1,8.3,32,0.00,,---,0.00,VWS V14.01,2013-01-01 19:26:00,
2013-01-01 14:31:00,30.9,4.8,30.00,North,357,5.4,8.3,32,0.00,,---,0.00,VWS V14.01,2013-01-01 19:31:00,
2013-01-01 14:36:00,30.6,4.5,30.00,North,353,0.0,8.3,32,0.00,,---,0.00,VWS V14.01,2013-01-01 19:36:00,
2013-01-01 14:41:00,29.5,4.2,30.00,NNE,24,5.8,8.3,33,0.00,,---,0.00,VWS V14.01,2013-01-01 19:41:00,
2013-01-01 14:46:00,28.6,3.5,30.00,North,10,4.0,8.3,33,0.00,,---,0.00,VWS V14.01,2013-01-01 19:46:00,
2013-01-01 14:51:00,28.0,3.0,30.00,North,353,4.9,8.3,33,0.00,,---,0.00,VWS V14.01,2013-01-01 19:51:00,
2013-01-01 14:56:00,27.9,2.8,30.00,North,0,3.1,8.3,33,0.00,,---,0.00,VWS V14.01,2013-01-01 19:56:00,
2013-01-01 15:01:00,27.0,2.0,30.03,NNE,15,4.0,4.0,33,0.00,,---,0.00,VWS V14.01,2013-01-01 20:01:00,
2013-01-01 15:06:00,26.6,2.4,30.03,NE,35,0.0,6.3,35,0.00,,---,0.00,VWS V14.01,2013-01-01 20:06:00,
2013-01-01 15:11:00,26.1,1.9,30.03,North,1,3.1,6.3,35,0.00,,---,0.00,VWS V14.01,2013-01-01 20:11:00,
2013-01-01 15:16:00,26.1,1.9,30.03,North,357,0.0,6.3,35,0.00,,---,0.00,VWS V14.01,2013-01-01 20:16:00,
2013-01-01 15:21:00,25.5,1.4,30.03,North,353,0.0,6.7,35,0.00,,---,0.00,VWS V14.01,2013-01-01 20:21:00,
2013-01-01 15:26:00,25.2,1.1,30.03,North,7,3.1,6.7,35,0.00,,---,0.00,VWS V14.01,2013-01-01 20:26:00,
2013-01-01 15:31:00,25.2,1.1,30.03,North,0,5.4,7.6,35,0.00,,---,0.00,VWS V14.01,2013-01-01 20:31:00,
2013-01-01 15:36:00,25.0,0.9,30.03,NNE,12,7.6,7.6,35,0.00,,---,0.00,VWS V14.01,2013-01-01 20:36:00,
2013-01-01 15:41:00,24.8,1.4,30.03,North,0,2.2,7.6,36,0.00,,---,0.00,VWS V14.01,2013-01-01 20:41:00,
2013-01-01 15:46:00,24.6,1.3,30.03,NNE,28,2.7,7.6,36,0.00,,---,0.00,VWS V14.01,2013-01-01 20:46:00,
2013-01-01 15:51:00,24.4,1.1,30.03,North,0,0.0,7.6,36,0.00,,---,0.00,VWS V14.01,2013-01-01 20:51:00,
2013-01-01 15:56:00,24.4,1.1,30.03,North,357,4.0,7.6,36,0.00,,---,0.00,VWS V14.01,2013-01-01 20:56:00,
2013-01-01 16:01:00,24.3,0.9,30.03,North,357,4.9,5.8,36,0.00,,---,0.00,VWS V14.01,2013-01-01 21:01:00,
2013-01-01 16:06:00,23.9,0.6,30.03,North,353,0.0,5.8,36,0.00,,---,0.00,VWS V14.01,2013-01-01 21:06:00,
2013-01-01 16:11:00,23.7,0.5,30.03,North,0,0.0,6.3,36,0.00,,---,0.00,VWS V14.01,2013-01-01 21:11:00,
2013-01-01 16:16:00,23.5,0.3,30.03,North,357,0.0,6.3,36,0.00,,---,0.00,VWS V14.01,2013-01-01 21:16:00,
2013-01-01 16:21:00,23.4,0.2,30.03,North,0,0.0,6.3,36,0.00,,---,0.00,VWS V14.01,2013-01-01 21:21:00,
2013-01-01 16:26:00,23.2,0.0,30.03,NNE,17,5.4,6.3,36,0.00,,---,0.00,VWS V14.01,2013-01-01 21:26:00,
2013-01-01 16:31:00,22.8,-0.3,30.03,North,10,4.0,6.3,36,0.00,,---,0.00,VWS V14.01,2013-01-01 21:31:00,
2013-01-01 16:36:00,22.8,-0.3,30.03,North,10,0.0,6.3,36,0.00,,---,0.00,VWS V14.01,2013-01-01 21:36:00,
2013-01-01 16:41:00,22.5,-0.7,30.03,North,0,0.0,6.3,36,0.00,,---,0.00,VWS V14.01,2013-01-01 21:41:00,
2013-01-01 16:47:00,22.3,-0.2,30.03,North,11,2.7,6.3,37,0.00,,---,0.00,VWS V14.01,2013-01-01 21:47:00,
2013-01-01 16:52:00,22.1,-0.3,30.03,North,11,0.0,6.3,37,0.00,,---,0.00,VWS V14.01,2013-01-01 21:52:00,
2013-01-01 16:57:00,21.9,-0.5,30.03,North,11,0.0,6.3,37,0.00,,---,0.00,VWS V14.01,2013-01-01 21:57:00,
2013-01-01 17:02:00,21.4,-1.0,30.03,North,11,0.0,0.0,37,0.00,,---,0.00,VWS V14.01,2013-01-01 22:02:00,
2013-01-01 17:07:00,21.2,-1.2,30.03,North,11,0.0,0.0,37,0.00,,---,0.00,VWS V14.01,2013-01-01 22:07:00,
2013-01-01 17:12:00,20.8,-1.5,30.03,North,11,0.0,0.0,37,0.00,,---,0.00,VWS V14.01,2013-01-01 22:12:00,
2013-01-01 17:17:00,20.5,-1.8,30.03,North,11,0.0,0.0,37,0.00,,---,0.00,VWS V14.01,2013-01-01 22:17:00,
2013-01-01 17:22:00,20.3,-2.0,30.03,North,11,0.0,0.0,37,0.00,,---,0.00,VWS V14.01,2013-01-01 22:22:00,
2013-01-01 17:27:00,19.9,-2.3,30.03,North,11,0.0,0.0,37,0.00,,---,0.00,VWS V14.01,2013-01-01 22:27:00,
2013-01-01 17:32:00,19.6,-2.0,30.03,North,11,0.0,0.0,38,0.00,,---,0.00,VWS V14.01,2013-01-01 22:32:00,
2013-01-01 17:37:00,19.2,-1.7,30.03,North,11,0.0,0.0,39,0.00,,---,0.00,VWS V14.01,2013-01-01 22:37:00,
2013-01-01 17:42:00,18.7,-2.2,30.03,North,11,0.0,0.0,39,0.00,,---,0.00,VWS V14.01,2013-01-01 22:42:00,
2013-01-01 17:47:00,18.3,-2.5,30.03,North,11,0.0,0.0,39,0.00,,---,0.00,VWS V14.01,2013-01-01 22:47:00,
2013-01-01 17:52:00,18.1,-2.1,30.03,North,11,0.0,0.0,40,0.00,,---,0.00,VWS V14.01,2013-01-01 22:52:00,
2013-01-01 17:57:00,17.8,-2.5,30.03,North,11,0.0,0.0,40,0.00,,---,0.00,VWS V14.01,2013-01-01 22:57:00,
2013-01-01 18:02:00,17.4,-2.2,30.03,North,11,0.0,0.0,41,0.00,,---,0.00,VWS V14.01,2013-01-01 23:02:00,
2013-01-01 18:07:00,17.1,-2.0,30.03,North,11,0.0,0.0,42,0.00,,---,0.00,VWS V14.01,2013-01-01 23:07:00,
2013-01-01 18:12:00,16.9,-1.6,30.03,North,11,0.0,0.0,43,0.00,,---,0.00,VWS V14.01,2013-01-01 23:12:00,
2013-01-01 18:17:00,16.5,-2.0,30.03,North,11,0.0,0.0,43,0.00,,---,0.00,VWS V14.01,2013-01-01 23:17:00,
2013-01-01 18:22:00,16.2,-2.3,30.03,North,11,0.0,0.0,43,0.00,,---,0.00,VWS V14.01,2013-01-01 23:22:00,
2013-01-01 18:27:00,15.8,-2.1,30.03,North,11,0.0,0.0,44,0.00,,---,0.00,VWS V14.01,2013-01-01 23:27:00,
2013-01-01 18:32:00,15.4,-2.4,30.03,North,11,0.0,0.0,44,0.00,,---,0.00,VWS V14.01,2013-01-01 23:32:00,
2013-01-01 18:37:00,15.3,-1.1,30.03,North,11,0.0,0.0,48,0.00,,---,0.00,VWS V14.01,2013-01-01 23:37:00,
2013-01-01 18:42:00,14.9,-1.4,30.03,North,11,0.0,0.0,48,0.00,,---,0.00,VWS V14.01,2013-01-01 23:42:00,
2013-01-01 18:47:00,14.7,-1.6,30.03,North,11,0.0,0.0,48,0.00,,---,0.00,VWS V14.01,2013-01-01 23:47:00,
2013-01-01 18:52:00,14.9,-1.4,30.03,North,11,0.0,0.0,48,0.00,,---,0.00,VWS V14.01,2013-01-01 23:52:00,
2013-01-01 18:57:00,14.9,-1.0,30.03,North,11,0.0,0.0,49,0.00,,---,0.00,VWS V14.01,2013-01-01 23:57:00,
2013-01-01 19:02:00,14.7,-1.6,30.03,North,11,0.0,0.0,48,0.00,,---,0.00,VWS V14.01,2013-01-02 00:02:00,
2013-01-01 19:07:00,14.5,-1.3,30.03,North,11,0.0,0.0,49,0.00,,---,0.00,VWS V14.01,2013-01-02 00:07:00,
2013-01-01 19:12:00,14.2,-1.6,30.03,North,11,0.0,0.0,49,0.00,,---,0.00,VWS V14.01,2013-01-02 00:12:00,
2013-01-01 19:17:00,13.8,-2.0,30.03,North,11,0.0,0.0,49,0.00,,---,0.00,VWS V14.01,2013-01-02 00:17:00,
2013-01-01 19:22:00,13.6,-2.1,30.03,North,11,0.0,0.0,49,0.00,,---,0.00,VWS V14.01,2013-01-02 00:22:00,
2013-01-01 19:27:00,13.5,-2.3,30.03,North,11,0.0,0.0,49,0.00,,---,0.00,VWS V14.01,2013-01-02 00:27:00,
2013-01-01 19:32:00,13.1,-2.6,30.03,North,11,0.0,0.0,49,0.00,,---,0.00,VWS V14.01,2013-01-02 00:32:00,
2013-01-01 19:37:00,12.9,-2.8,30.03,North,11,0.0,0.0,49,0.00,,---,0.00,VWS V14.01,2013-01-02 00:37:00,
2013-01-01 19:42:00,12.6,-3.1,30.03,North,11,0.0,0.0,49,0.00,,---,0.00,VWS V14.01,2013-01-02 00:42:00,
2013-01-01 19:47:00,12.6,-3.1,30.03,North,11,0.0,0.0,49,0.00,,---,0.00,VWS V14.01,2013-01-02 00:47:00,
2013-01-01 19:52:00,12.2,-3.5,30.03,North,11,0.0,0.0,49,0.00,,---,0.00,VWS V14.01,2013-01-02 00:52:00,
2013-01-01 19:58:00,12.2,-3.5,30.03,North,11,0.0,0.0,49,0.00,,---,0.00,VWS V14.01,2013-01-02 00:58:00,
2013-01-01 20:03:00,12.0,-3.6,30.03,North,11,0.0,0.0,49,0.00,,---,0.00,VWS V14.01,2013-01-02 01:03:00,
2013-01-01 20:08:00,11.8,-3.8,30.03,North,11,0.0,0.0,49,0.00,,---,0.00,VWS V14.01,2013-01-02 01:08:00,
2013-01-01 20:13:00,11.7,-4.0,30.03,North,11,0.0,0.0,49,0.00,,---,0.00,VWS V14.01,2013-01-02 01:13:00,
2013-01-01 20:18:00,11.5,-4.1,30.03,North,11,0.0,0.0,49,0.00,,---,0.00,VWS V14.01,2013-01-02 01:18:00,
2013-01-01 20:23:00,11.3,-4.3,30.03,North,11,0.0,0.0,49,0.00,,---,0.00,VWS V14.01,2013-01-02 01:23:00,
2013-01-01 20:28:00,11.3,-4.3,30.03,North,11,0.0,0.0,49,0.00,,---,0.00,VWS V14.01,2013-01-02 01:28:00,
2013-01-01 20:33:00,11.1,-4.5,30.03,North,11,0.0,0.0,49,0.00,,---,0.00,VWS V14.01,2013-01-02 01:33:00,
2013-01-01 20:38:00,10.9,-4.6,30.03,North,11,0.0,0.0,49,0.00,,---,0.00,VWS V14.01,2013-01-02 01:38:00,
2013-01-01 20:43:00,10.9,-4.6,30.03,North,11,0.0,0.0,49,0.00,,---,0.00,VWS V14.01,2013-01-02 01:43:00,
2013-01-01 20:48:00,10.9,-4.6,30.03,North,11,0.0,0.0,49,0.00,,---,0.00,VWS V14.01,2013-01-02 01:48:00,
2013-01-01 20:53:00,11.3,-4.3,30.03,North,11,0.0,0.0,49,0.00,,---,0.00,VWS V14.01,2013-01-02 01:53:00,
2013-01-01 20:58:00,11.3,-4.3,30.03,North,11,0.0,0.0,49,0.00,,---,0.00,VWS V14.01,2013-01-02 01:58:00,
2013-01-01 21:03:00,11.3,-4.3,30.03,North,11,0.0,0.0,49,0.00,,---,0.00,VWS V14.01,2013-01-02 02:03:00,
2013-01-01 21:08:00,11.3,-4.3,30.03,North,11,0.0,0.0,49,0.00,,---,0.00,VWS V14.01,2013-01-02 02:08:00,
2013-01-01 21:13:00,11.7,-4.0,30.03,North,11,0.0,0.0,49,0.00,,---,0.00,VWS V14.01,2013-01-02 02:13:00,
2013-01-01 21:18:00,11.7,-4.0,30.03,North,11,0.0,0.0,49,0.00,,---,0.00,VWS V14.01,2013-01-02 02:18:00,
2013-01-01 21:23:00,11.5,-4.1,30.03,North,11,0.0,0.0,49,0.00,,---,0.00,VWS V14.01,2013-01-02 02:23:00,
2013-01-01 21:28:00,11.7,-4.0,30.03,North,11,0.0,0.0,49,0.00,,---,0.00,VWS V14.01,2013-01-02 02:28:00,
2013-01-01 21:33:00,11.7,-4.0,30.03,North,11,0.0,0.0,49,0.00,,---,0.00,VWS V14.01,2013-01-02 02:33:00,
2013-01-01 21:38:00,11.8,-3.8,30.03,North,11,0.0,0.0,49,0.00,,---,0.00,VWS V14.01,2013-01-02 02:38:00,
2013-01-01 21:43:00,12.0,-3.6,30.03,North,11,0.0,0.0,49,0.00,,---,0.00,VWS V14.01,2013-01-02 02:43:00,
2013-01-01 21:48:00,12.6,-3.1,30.03,North,11,0.0,0.0,49,0.00,,---,0.00,VWS V14.01,2013-01-02 02:48:00,
2013-01-01 21:53:00,12.7,-3.0,30.03,North,11,0.0,0.0,49,0.00,,---,0.00,VWS V14.01,2013-01-02 02:53:00,
2013-01-01 21:58:00,12.9,-2.8,30.03,North,11,0.0,0.0,49,0.00,,---,0.00,VWS V14.01,2013-01-02 02:58:00,
2013-01-01 22:03:00,13.1,-2.6,30.00,North,11,0.0,0.0,49,0.00,,---,0.00,VWS V14.01,2013-01-02 03:03:00,
2013-01-01 22:08:00,13.3,-2.5,30.00,North,11,0.0,0.0,49,0.00,,---,0.00,VWS V14.01,2013-01-02 03:08:00,
2013-01-01 22:13:00,13.6,-2.1,30.00,North,11,0.0,0.0,49,0.00,,---,0.00,VWS V14.01,2013-01-02 03:13:00,
2013-01-01 22:18:00,13.6,-2.1,30.03,North,11,0.0,0.0,49,0.00,,---,0.00,VWS V14.01,2013-01-02 03:18:00,
2013-01-01 22:24:00,13.8,-2.0,30.03,North,11,0.0,0.0,49,0.00,,---,0.00,VWS V14.01,2013-01-02 03:24:00,
2013-01-01 22:29:00,13.8,-2.0,30.03,North,11,0.0,0.0,49,0.00,,---,0.00,VWS V14.01,2013-01-02 03:29:00,
2013-01-01 22:34:00,14.4,1.6,30.03,North,11,0.0,0.0,56,0.00,,---,0.00,VWS V14.01,2013-01-02 03:34:00,
2013-01-01 22:39:00,14.7,1.5,30.03,North,11,0.0,0.0,55,0.00,,---,0.00,VWS V14.01,2013-01-02 03:39:00,
2013-01-01 22:44:00,14.9,1.7,30.03,North,11,0.0,0.0,55,0.00,,---,0.00,VWS V14.01,2013-01-02 03:44:00,
2013-01-01 22:49:00,14.9,1.7,30.03,North,11,0.0,0.0,55,0.00,,---,0.00,VWS V14.01,2013-01-02 03:49:00,
2013-01-01 22:54:00,14.9,1.7,30.03,North,11,0.0,0.0,55,0.00,,---,0.00,VWS V14.01,2013-01-02 03:54:00,
2013-01-01 22:59:00,15.1,1.4,30.03,North,11,0.0,0.0,54,0.00,,---,0.00,VWS V14.01,2013-01-02 03:59:00,
2013-01-01 23:04:00,15.1,1.4,30.03,North,11,0.0,0.0,54,0.00,,---,0.00,VWS V14.01,2013-01-02 04:04:00,
2013-01-01 23:09:00,15.1,1.4,30.03,North,11,0.0,0.0,54,0.00,,---,0.00,VWS V14.01,2013-01-02 04:09:00,
2013-01-01 23:14:00,15.1,1.4,30.03,North,11,0.0,0.0,54,0.00,,---,0.00,VWS V14.01,2013-01-02 04:14:00,
2013-01-01 23:19:00,14.9,1.3,30.03,North,11,0.0,0.0,54,0.00,,---,0.00,VWS V14.01,2013-01-02 04:19:00,
2013-01-01 23:24:00,14.5,0.9,30.03,North,11,0.0,0.0,54,0.00,,---,0.00,VWS V14.01,2013-01-02 04:24:00,
2013-01-01 23:29:00,14.4,0.8,30.03,North,11,0.0,0.0,54,0.00,,---,0.00,VWS V14.01,2013-01-02 04:29:00,
2013-01-01 23:34:00,14.4,0.8,30.03,North,11,0.0,0.0,54,0.00,,---,0.00,VWS V14.01,2013-01-02 04:34:00,
2013-01-01 23:39:00,14.4,0.8,30.03,North,11,0.0,0.0,54,0.00,,---,0.00,VWS V14.01,2013-01-02 04:39:00,
2013-01-01 23:44:00,14.2,0.6,30.03,North,11,0.0,0.0,54,0.00,,---,0.00,VWS V14.01,2013-01-02 04:44:00,
2013-01-01 23:49:00,14.2,0.6,30.03,North,11,0.0,0.0,54,0.00,,---,0.00,VWS V14.01,2013-01-02 04:49:00,
2013-01-01 23:54:00,14.0,0.9,30.03,North,11,0.0,0.0,55,0.00,,---,0.00,VWS V14.01,2013-01-02 04:54:00,
2013-01-01 23:59:00,13.8,0.7,30.03,North,11,0.0,0.0,55,0.00,,---,0.00,VWS V14.01,2013-01-02 04:59:00,